Location: Cardiff
(53.7833°N, 113.6000°W)
Time: 14:18:09
(UTC+00:00)

RS-15 - Pass Details

Date: 10 December 2023
Orbit: 1893 x 2151 km, 64.8° (Epoch: 20 February)

Event Time Altitude Azimuth Distance (km) Brightness Sun altitude
Rises 07:56:03 0° 286° (WNW) 5,597 10.5 -58.6°
Enters shadow 07:57:52 - 289° (WNW) 5,086 10.2 -58.6°
Exits shadow 08:18:39 22° 71° (ENE) 3,485 9.4 -57.6°
Drops below altitude 10° 08:22:01 10° 81° (E) 4,360 10.0 -57.4°
Sets 08:25:28 0° 87° (E) 5,332 10.5 -57.2°
